This is the latest recevied weather packets stored in our database for station/object ED5YAL-15. If no packets are shown the sender has not sent any weather packets the latest 10 day(s).
| Time | Temp. | Humidity | Pressure | Rain* | Wind** | Luminosity | Snow |
|---|---|---|---|---|---|---|---|
| 1777426291 | 15° C | 45% | 1014.4 hPa | - | - | - | - |
| 1777425390 | 15.56° C | 45% | 1014.6 hPa | - | - | - | - |
| 1777424807 | 15.56° C | 45% | 1014.7 hPa | - | - | - | - |
| 1777424527 | 15.56° C | 45% | 1014.7 hPa | - | - | - | - |
| 1777424490 | 15.56° C | 45% | 1014.7 hPa | - | - | - | - |
| 1777423589 | 16.11° C | 45% | 1014.7 hPa | - | - | - | - |
| 1777422688 | 16.11° C | 45% | 1014.9 hPa | - | - | - | - |
| 1777421787 | 16.11° C | 45% | 1015 hPa | - | - | - | - |
| 1777420886 | 15.56° C | 45% | 1015.2 hPa | - | - | - | - |
| 1777419986 | 15.56° C | 45% | 1015.2 hPa | - | - | - | - |
| 1777419085 | 15.56° C | 45% | 1015.2 hPa | - | - | - | - |
| 1777418184 | 16.11° C | 45% | 1015.2 hPa | - | - | - | - |
| 1777417283 | 17.22° C | 45% | 1015.2 hPa | - | - | - | - |
| 1777416382 | 17.22° C | 45% | 1015.3 hPa | - | - | - | - |
| 1777415481 | 16.67° C | 45% | 1015.4 hPa | - | - | - | - |
| 1777414581 | 16.67° C | 45% | 1015.4 hPa | - | - | - | - |
| 1777413680 | 16.11° C | 45% | 1015.4 hPa | - | - | - | - |
| 1777412779 | 16.11° C | 46% | 1015.5 hPa | - | - | - | - |
| 1777411878 | 15.56° C | 46% | 1015.6 hPa | - | - | - | - |
| 1777410977 | 15.56° C | 45% | 1015.6 hPa | - | - | - | - |
| 1777410077 | 15.56° C | 45% | 1015.6 hPa | - | - | - | - |
| 1777409176 | 16.11° C | 45% | 1015.7 hPa | - | - | - | - |
| 1777408275 | 16.11° C | 45% | 1015.7 hPa | - | - | - | - |
| 1777407374 | 17.78° C | 46% | 1015.6 hPa | - | - | - | - |
| 1777406529 | 15.56° C | 45% | 1015.7 hPa | - | - | - | - |
* Rain since midnight (hover to see other rain measurements)
** Current wind speed in m/s (hover to see current wind gust speed)